Previsão horária em Kaban-Bastryk

Hoje, 18 Junho, Sexta-feira

Tempo Temperatura Precipitação Vento Pressão Humidade
00:00 +12°C° 0 mm 3 m/s 751 mmHg 75%
01:00 +12°C° 0 mm 3 m/s 752 mmHg 79%
02:00 +11°C° 0 mm 3 m/s 752 mmHg 83%
03:00 +10°C° 0 mm 3 m/s 752 mmHg 86%
04:00 +11°C° 0 mm 4 m/s 753 mmHg 83%
05:00 +12°C° 0 mm 4 m/s 753 mmHg 81%
06:00 +13°C° 0 mm 5 m/s 754 mmHg 78%
07:00 +14°C° 0 mm 5 m/s 754 mmHg 72%
08:00 +15°C° 0 mm 5 m/s 754 mmHg 67%
09:00 +16°C° 0 mm 5 m/s 754 mmHg 62%
10:00 +17°C° 0 mm 5 m/s 755 mmHg 58%
11:00 +17°C° 0 mm 5 m/s 755 mmHg 54%
12:00 +19°C° 0 mm 5 m/s 755 mmHg 50%
13:00 +19°C° 0 mm 5 m/s 755 mmHg 49%
14:00 +20°C° 0 mm 5 m/s 755 mmHg 48%
15:00 +20°C° 0 mm 5 m/s 755 mmHg 47%
16:00 +19°C° 0 mm 4 m/s 755 mmHg 52%
17:00 +19°C° 0 mm 3 m/s 755 mmHg 58%
18:00 +18°C° 0 mm 3 m/s 756 mmHg 63%
19:00 +17°C° 0 mm 2 m/s 756 mmHg 65%
20:00 +15°C° 0 mm 2 m/s 756 mmHg 67%
21:00 +14°C° 0 mm 1 m/s 756 mmHg 69%
22:00 +13°C° 0 mm 1 m/s 756 mmHg 71%
23:00 +13°C° 0 mm 1 m/s 756 mmHg 73%

Amanhã, 19 Junho, Sábado

Tempo Temperatura Precipitação Vento Pressão Humidade
00:00 +12°C° 0 mm 1 m/s 757 mmHg 76%
01:00 +12°C° 0 mm 2 m/s 757 mmHg 76%
02:00 +12°C° 0 mm 2 m/s 757 mmHg 77%
03:00 +12°C° 0 mm 2 m/s 757 mmHg 77%
04:00 +12°C° 0 mm 3 m/s 757 mmHg 75%
05:00 +13°C° 0 mm 4 m/s 757 mmHg 73%
06:00 +14°C° 0 mm 4 m/s 757 mmHg 71%
07:00 +16°C° 0 mm 5 m/s 756 mmHg 68%
08:00 +17°C° 0 mm 6 m/s 756 mmHg 64%
09:00 +20°C° 0 mm 6 m/s 756 mmHg 61%
10:00 +21°C° 0 mm 7 m/s 755 mmHg 60%
11:00 +22°C° 0 mm 7 m/s 755 mmHg 60%
12:00 +23°C° 0 mm 8 m/s 754 mmHg 60%
13:00 +23°C° 0 mm 8 m/s 754 mmHg 62%
14:00 +23°C° 0 mm 8 m/s 754 mmHg 63%
15:00 +24°C° 0 mm 7 m/s 753 mmHg 65%
16:00 +23°C° 0 mm 7 m/s 753 mmHg 68%
17:00 +23°C° 0 mm 7 m/s 752 mmHg 71%
18:00 +23°C° 0 mm 7 m/s 752 mmHg 74%
19:00 +22°C° 0 mm 7 m/s 752 mmHg 77%
20:00 +21°C° 0 mm 6 m/s 752 mmHg 80%
21:00 +20°C° 0 mm 6 m/s 752 mmHg 83%
22:00 +20°C° 0 mm 6 m/s 752 mmHg 85%
23:00 +19°C° 0 mm 6 m/s 752 mmHg 87%

Depois de amanhã, 20 Junho, Domingo

Tempo Temperatura Precipitação Vento Pressão Humidade
00:00 +19°C° 0 mm 6 m/s 752 mmHg 88%
01:00 +17°C° 0 mm 5 m/s 752 mmHg 90%
02:00 +17°C° 0 mm 5 m/s 752 mmHg 91%
03:00 +17°C° 0 mm 5 m/s 752 mmHg 92%
04:00 +19°C° 0 mm 5 m/s 752 mmHg 89%
05:00 +20°C° 0 mm 5 m/s 752 mmHg 85%
06:00 +21°C° 0 mm 5 m/s 752 mmHg 81%
07:00 +22°C° 0 mm 5 m/s 752 mmHg 76%
08:00 +25°C° 0 mm 5 m/s 752 mmHg 72%
09:00 +26°C° 0 mm 5 m/s 752 mmHg 67%
10:00 +27°C° 0 mm 5 m/s 752 mmHg 64%
11:00 +28°C° 0 mm 5 m/s 752 mmHg 60%
12:00 +29°C° 0 mm 5 m/s 753 mmHg 57%
13:00 +28°C° 0 mm 5 m/s 753 mmHg 56%
14:00 +28°C° 0 mm 5 m/s 753 mmHg 54%
15:00 +28°C° 0 mm 5 m/s 753 mmHg 53%
16:00 +27°C° 0 mm 4 m/s 753 mmHg 56%
17:00 +26°C° 0 mm 3 m/s 753 mmHg 59%
18:00 +24°C° 0 mm 3 m/s 753 mmHg 62%
19:00 +23°C° 0 mm 2 m/s 753 mmHg 62%
20:00 +20°C° 0 mm 2 m/s 754 mmHg 61%
21:00 +18°C° 0 mm 2 m/s 754 mmHg 61%
22:00 +18°C° 0 mm 1 m/s 754 mmHg 62%
23:00 +18°C° 0 mm 1 m/s 754 mmHg 63%

21 Junho, Segunda-feira

Tempo Temperatura Precipitação Vento Pressão Humidade
00:00 +15°C° 0 mm 0 m/s 754 mmHg 64%
01:00 +15°C° 0 mm 0 m/s 755 mmHg 64%
02:00 +14°C° 0 mm 0 m/s 755 mmHg 65%
03:00 +14°C° 0 mm 0 m/s 755 mmHg 65%
04:00 +15°C° 0 mm 0 m/s 755 mmHg 63%
05:00 +19°C° 0 mm 1 m/s 755 mmHg 62%
06:00 +20°C° 0 mm 1 m/s 755 mmHg 61%
07:00 +21°C° 0 mm 1 m/s 755 mmHg 58%
08:00 +21°C° 0 mm 2 m/s 755 mmHg 56%
09:00 +23°C° 0 mm 2 m/s 755 mmHg 54%
10:00 +23°C° 0 mm 2 m/s 755 mmHg 56%
11:00 +24°C° 0 mm 2 m/s 755 mmHg 58%
12:00 +24°C° 0 mm 3 m/s 755 mmHg 60%
13:00 +26°C° 0 mm 3 m/s 754 mmHg 60%
14:00 +27°C° 0 mm 3 m/s 754 mmHg 60%
15:00 +29°C° 0 mm 4 m/s 753 mmHg 59%
16:00 +28°C° 0.3 mm 4 m/s 753 mmHg 66%
17:00 +27°C° 0.3 mm 3 m/s 753 mmHg 72%
18:00 +26°C° 0.3 mm 3 m/s 752 mmHg 79%
19:00 +25°C° 0.1 mm 3 m/s 752 mmHg 82%
20:00 +22°C° 0.1 mm 3 m/s 752 mmHg 85%
21:00 +21°C° 0.1 mm 3 m/s 752 mmHg 88%
22:00 +21°C° 0 mm 3 m/s 752 mmHg 89%
23:00 +20°C° 0 mm 3 m/s 752 mmHg 90%

22 Junho, Terça-feira

Tempo Temperatura Precipitação Vento Pressão Humidade
00:00 +20°C° 0 mm 3 m/s 752 mmHg 91%
01:00 +19°C° 0 mm 3 m/s 752 mmHg 92%
02:00 +19°C° 0 mm 3 m/s 752 mmHg 93%
03:00 +19°C° 0 mm 3 m/s 752 mmHg 93%
04:00 +20°C° 0 mm 3 m/s 752 mmHg 90%
05:00 +21°C° 0 mm 4 m/s 752 mmHg 87%
06:00 +22°C° 0 mm 4 m/s 752 mmHg 83%
07:00 +25°C° 0 mm 5 m/s 752 mmHg 76%
08:00 +26°C° 0 mm 5 m/s 752 mmHg 69%
09:00 +28°C° 0 mm 6 m/s 752 mmHg 62%
10:00 +28°C° 0 mm 6 m/s 752 mmHg 61%
11:00 +29°C° 0 mm 6 m/s 752 mmHg 59%
12:00 +30°C° 0 mm 7 m/s 752 mmHg 57%
13:00 +30°C° 0 mm 6 m/s 752 mmHg 57%
14:00 +32°C° 0 mm 6 m/s 752 mmHg 57%
15:00 +32°C° 0 mm 6 m/s 752 mmHg 57%
16:00 +30°C° 0.1 mm 5 m/s 752 mmHg 61%
17:00 +29°C° 0.1 mm 5 m/s 751 mmHg 65%
18:00 +28°C° 0.1 mm 5 m/s 751 mmHg 69%
19:00 +26°C° 0 mm 4 m/s 752 mmHg 71%
20:00 +25°C° 0 mm 3 m/s 752 mmHg 73%
21:00 +23°C° 0 mm 2 m/s 752 mmHg 74%
22:00 +21°C° 0 mm 2 m/s 753 mmHg 76%
23:00 +20°C° 0 mm 2 m/s 753 mmHg 78%

23 Junho, Quarta-feira

Tempo Temperatura Precipitação Vento Pressão Humidade
00:00 +19°C° 0 mm 2 m/s 753 mmHg 80%
01:00 +18°C° 0 mm 3 m/s 753 mmHg 83%
02:00 +17°C° 0 mm 3 m/s 754 mmHg 87%
03:00 +16°C° 0 mm 3 m/s 754 mmHg 91%
04:00 +16°C° 0 mm 3 m/s 754 mmHg 87%
05:00 +17°C° 0 mm 3 m/s 755 mmHg 84%
06:00 +18°C° 0 mm 4 m/s 755 mmHg 81%
07:00 +19°C° 0 mm 4 m/s 755 mmHg 75%
08:00 +20°C° 0 mm 4 m/s 755 mmHg 70%
09:00 +21°C° 0 mm 5 m/s 756 mmHg 64%
10:00 +22°C° 0 mm 4 m/s 756 mmHg 60%
11:00 +22°C° 0 mm 4 m/s 756 mmHg 55%
12:00 +23°C° 0 mm 4 m/s 756 mmHg 51%
13:00 +23°C° 0 mm 4 m/s 756 mmHg 50%
14:00 +23°C° 0 mm 4 m/s 756 mmHg 50%
15:00 +25°C° 0 mm 4 m/s 756 mmHg 49%
16:00 +23°C° 0 mm 4 m/s 756 mmHg 53%
17:00 +22°C° 0 mm 3 m/s 756 mmHg 58%
18:00 +21°C° 0 mm 3 m/s 756 mmHg 62%
19:00 +20°C° 0 mm 2 m/s 756 mmHg 65%
20:00 +18°C° 0 mm 2 m/s 756 mmHg 67%
21:00 +16°C° 0 mm 2 m/s 756 mmHg 70%
22:00 +16°C° 0 mm 1 m/s 756 mmHg 71%
23:00 +15°C° 0 mm 1 m/s 756 mmHg 72%
Mostrar mais

Necessitamos do seu Consentimento

A Meteoprog e os seus Fornecedores de Serviços podem armazenar e aceder a dados pessoais como cookies, identificadores do dispositivo ou outras tecnologias semelhantes existentes no seu dispositivo e processar estes dados para personalizar conteúdos e anúncios, assim como funcionalidades nas redes sociais e análise de tráfego.

  • Armazenar e/ou aceder a informações no seu dispositivo

    Os cookies, identificadores do dispositivo ou outras informações podem ser armazenados ou acedidos no seu dispositivo, para os fins acima indicados.

  • Anúncios e conteúdos personalizados, medição de anúncios e conteúdos, dados sobre o público-alvo e desenvolvimento de produtos

    Os anúncios e os conteúdos podem ser personalizados com base num perfil. Podem ser adicionados dados adicionais para uma maior personalização dos anúncios e dos conteúdos. A eficácia dos anúncios e dos conteúdos pode ser medida. Podem ser obtidas informações sobre o público que visualizou os anúncios e os conteúdos. Estes dados podem ser usados para desenvolver ou melhorar sistemas, softwares ou a experiência do utilizador.

Ao clicar em "Eu concordo”, permitirá o uso de cookies, identificadores do dispositivo e web beacons mencionados ou outras tecnologias semelhantes. As configurações do navegador do seu dispositivo podem ser alteradas.

Para certos fins, podem ser invocados interesses legítimos ao invés de consentimento. Pode ler mais informação sobre este assunto na nossa Política de Privacidade e Cookies.